Regional Weather Roundup
Issued by NWS

Home | Current Version | Previous Version | Text Only | Print | Product List | Glossary Off
Versions: 1 2 3 4 5 6 7 8 9 10 11 12 13 14 15 16 17 18 19 20 21 22 23 24 25 26 27 28 29 30 31 32 33 34 35 36 37 38 39 40 41 42 43 44 45 46 47 48 49 50

000
ASUS43 KDMX 160607
RWRIA

WEATHER ROUNDUP FOR IOWA
NATIONAL WEATHER SERVICE DES MOINES IA
100 AM CDT TUE SEP 16 2014

NOTE: "FAIR" INDICATES FEW OR NO CLOUDS BELOW 12,000 FEET WITH NO
SIGNIFICANT WEATHER AND/OR OBSTRUCTIONS TO VISIBILITY.

* - THESE STATIONS ARE NOT NWS STATIONS...THUS NOT UNDER NWS
QUALITY CONTROL.  THEY ALSO DO NOT REPORT WEATHER SUCH
AS PRECIPITATION OR FOG.

IAZ001>003-012>014-020>022-031>034-043>046-160700-
   NORTHWEST IOWA

CITY           SKY/WX    TMP DP  RH WIND       PRES   REMARKS
CARROLL *      CLEAR     39  39 100 W3        30.26S
CHEROKEE *     CLEAR     40  40 100 CALM      30.26S
DENISON *      CLEAR     41  41 100 CALM      30.25S
LE MARS *      CLEAR     41  39  93 CALM      30.26S FOG
ORANGE CITY *  CLEAR     46  41  81 CALM      30.25S
SHELDON *      CLEAR     39  39 100 CALM      30.24S
SIOUX CITY     CLEAR     42  40  92 CALM      30.26S FOG
6HR MIN TEMP:  42; 6HR MAX TEMP:  62;

SPENCER        FOG       38  37  97 CALM      30.25S VSB 3/4
6HR MIN TEMP:  37; 6HR MAX TEMP:  59;

STORM LAKE *   CLEAR     46  43  87 SW3       30.26R
$$

IAZ055>058-069>071-079>083-090>094-160700-
   SOUTHWEST IOWA

CITY           SKY/WX    TMP DP  RH WIND       PRES   REMARKS
ATLANTIC *     CLEAR     43  41  93 CALM      30.26S
AUDUBON *      CLEAR     43  41  93 CALM      30.27S
CLARINDA *     CLEAR     43  43 100 NE3       30.28S FOG
COUNCIL BLFS *   N/A     48  48 100 CALM      30.26R
CRESTON *      CLEAR     45  43  93 NE3       30.26S
HARLAN  *      FOG       41  41 100 NW5       30.30S VSB 1/4
LAMONI         CLEAR     48  45  89 N6        30.25S
6HR MIN TEMP:  48; 6HR MAX TEMP:  59;

SHENANDOAH *     N/A     43  43 100 CALM      30.28R
$$

IAZ047>049-059>061-072>074-084-160700-
   CENTRAL IOWA

CITY           SKY/WX    TMP DP  RH WIND       PRES   REMARKS
AMES           CLEAR     41  40  96 CALM      30.25S
6HR MIN TEMP:  40; 6HR MAX TEMP:  57;

ANKENY *       CLEAR     45  45 100 CALM      30.25S
CHARITON *     CLEAR     46  46 100 W5        30.25S
DES MOINES     CLEAR     49  44  83 CALM      30.25S
6HR MIN TEMP:  49; 6HR MAX TEMP:  60;

GRINNELL*      CLEAR     45  43  93 NW5       30.25S
KNOXVILLE *    CLEAR     46  45  93 W6        30.24S
MARSHALLTOWN   CLEAR     42  40  92 N3        30.24S
6HR MIN TEMP:  41; 6HR MAX TEMP:  56;

PELLA *        CLEAR     46  44  96 N3        30.26S
PERRY *          N/A     43  43 100 W3        30.25F
$$

IAZ004>006-015-016-023>025-035-036-160700-
   NORTH CENTRAL IOWA

CITY           SKY/WX    TMP DP  RH WIND       PRES   REMARKS
ALGONA *       CLEAR     41  41 100 SW5       30.25S
CLARION *        N/A     39  39 100 SE3       30.24F
ESTHERVILLE    CLEAR     39  37  92 SW3       30.24S
6HR MIN TEMP:  39; 6HR MAX TEMP:  56;

FORT DODGE *   CLEAR     39  36  87 CALM      30.25S
MASON CITY     CLEAR     39  38  96 CALM      30.26S
6HR MIN TEMP:  39; 6HR MAX TEMP:  55;

FOREST CITY *  CLEAR     37  37 100 CALM      30.24S FOG
IOWA FALLS *     N/A     41  39  93 CALM      30.26S
$$

IAZ007>011-017>019-026>030-037>042-050>054-066-160700-
   NORTHEAST IOWA

CITY           SKY/WX    TMP DP  RH WIND       PRES   REMARKS
CEDAR RAPIDS   CLEAR     44  44 100 NW7       30.23S
6HR MIN TEMP:  44; 6HR MAX TEMP:  57;

CHARLES CITY * CLEAR     41  39  93 CALM      30.25S
CLINTON *      CLEAR     43  41  93 N7        30.23S
DECORAH *      CLEAR     41  41 100 CALM      30.23R
DUBUQUE        CLEAR     39  38  96 CALM      30.23R
6HR MIN TEMP:  39; 6HR MAX TEMP:  52;

MONTICELLO *   CLEAR     41  41 100 CALM      30.24R
OELWEIN *      CLEAR     43  43 100 CALM      30.25S FOG
WATERLOO       CLEAR     40  39  97 CALM      30.24S
6HR MIN TEMP:  38; 6HR MAX TEMP:  55;

$$

IAZ064-065-067-068-078-160700-
   EAST CENTRAL IOWA

CITY           SKY/WX    TMP DP  RH WIND       PRES   REMARKS
DAVENPORT      CLEAR     43  40  89 W7        30.23R
6HR MIN TEMP:  43; 6HR MAX TEMP:  55;

IOWA CITY      CLEAR     45  44  97 W3        30.25R
6HR MIN TEMP:  45; 6HR MAX TEMP:  58;

MT. PLEASANT * CLEAR     48  47  97 N5        30.23S
MUSCATINE *    CLEAR     48  45  87 CALM      30.24S
QUAD CITIES    CLEAR     45  43  93 SW6       30.23R
6HR MIN TEMP:  44; 6HR MAX TEMP:  58;

$$

IAZ062-063-075>077-085>089-095>099-160700-
   SOUTHEAST IOWA

CITY           SKY/WX    TMP DP  RH WIND       PRES   REMARKS
BURLINGTON     CLEAR     48  47  96 N5        30.22S
6HR MIN TEMP:  47; 6HR MAX TEMP:  59;

FAIRFIELD *    CLEAR     46  45  93 N7        30.24S
FORT MADISON * CLEAR     48  48 100 CALM      30.23F
KEOKUK *       CLEAR     50  48  93 NW3       30.22S
OSKALOOSA *      N/A     46  44  95 N3        30.25S
CENTERVILLE *  CLEAR     46  46 100 N5        30.26S
OTTUMWA        CLEAR     45  44  97 NW3       30.24S
6HR MIN TEMP:  45; 6HR MAX TEMP:  58;

WASHINGTON *   CLEAR     45  45 100 CALM      30.24S
$$

ABBREVIATIONS USED IN REMARKS
   TC - TEMPERATURES IN CELSIUS
  WCI - WIND CHILL INDEX
   HX - HEAT INDEX
  VSB - VISIBILITY
$$




USA.gov is the U.S. government's official web portal to all federal, state and local government web resources and services.